Wind_Speed
22 22 23 23 24 23 20 19 18 17 19 21 25 24 26 28 28 26 26 27 27 25 24 22 21 23 26 29 28 27 26 25 25 24 24 24 24 25 25 25 25 25 25
26 23 22 23 24 24 22 20 20 20 20 24 27 26 27 27 29 25 26 27 27 26 26 25 22 21 23 28 33 32 30 29 28 29 29 29 29 30 30 31 31 32 31
29 26 24 25 26 26 26 23 23 22 25 26 28 28 27 28 28 26 27 25 25 25 26 26 26 25 22 23 29 34 34 34 33 33 32 32 33 33 34 35 36 37 37
31 28 26 26 28 27 27 24 24 27 30 32 31 28 28 32 27 25 24 25 25 27 28 26 26 27 27 25 25 28 33 36 36 36 36 36 37 38 37 38 39 40 41
33 30 28 27 27 26 26 26 27 29 32 32 33 28 31 32 26 25 25 26 28 31 30 30 30 29 29 29 28 27 29 34 37 39 40 41 41 42 43 43 44 44 44
34 33 31 30 29 29 29 31 30 33 33 33 35 31 35 33 29 30 29 32 34 32 32 34 34 33 33 31 31 31 31 33 36 39 41 42 44 44 43 44 45 46 46
36 36 35 32 32 32 33 33 32 33 33 36 34 35 39 34 33 35 37 39 40 39 38 38 38 38 39 37 36 35 36 38 38 38 39 40 41 42 43 43 42 43 44
39 38 37 37 36 33 34 36 37 36 37 36 35 41 39 36 36 38 41 44 46 46 46 45 44 43 43 43 44 44 43 43 43 44 44 43 43 44 45 45 44 44 42
40 39 40 37 34 36 37 38 38 37 38 36 40 41 40 40 42 44 46 49 50 50 48 47 48 48 50 50 50 49 50 51 50 50 49 48 48 48 49 49 49 48 47
40 41 41 39 38 38 39 40 42 37 37 41 43 44 45 47 49 51 53 54 53 51 52 54 54 53 52 54 56 57 56 56 56 57 56 55 55 54 52 52 52 52 52
42 42 41 39 39 40 41 40 42 37 40 45 45 50 51 52 54 56 58 58 56 56 57 56 56 55 55 55 55 56 58 58 59 60 60 60 61 62 61 59 58 57 57
42 41 40 40 41 41 42 41 37 43 46 47 51 53 54 56 58 59 58 57 57 57 57 56 56 57 57 57 58 58 57 57 59 61 62 62 63 66 67 66 65 63 62
41 43 42 42 41 41 41 38 45 49 50 52 54 55 57 58 57 57 56 56 56 56 57 60 62 63 62 64 64 62 60 60 60 60 60 61 63 65 67 69 71 70 71
36 36 38 41 41 41 43 47 50 52 53 55 56 59 59 59 58 57 58 59 59 61 64 67 66 67 67 65 68 68 67 67 66 63 62 62 61 62 63 65 68 70 71
37 38 39 40 41 45 48 52 53 53 55 58 60 59 58 58 59 60 60 61 64 65 66 67 68 70 71 71 71 71 71 70 67 66 66 65 64 63 63 63 65 67 67
40 41 43 45 50 52 52 52 52 55 58 60 59 58 58 60 61 62 64 61 61 65 68 70 72 74 74 76 75 74 74 74 72 68 67 67 66 66 67 68 69 70 71
48 49 52 52 51 49 50 53 56 58 59 57 57 58 59 60 64 66 67 68 69 71 73 75 78 80 80 79 77 76 75 73 71 70 68 66 67 68 69 70 70 71 73
53 50 51 50 48 50 53 55 57 56 57 57 56 58 61 65 67 70 72 72 73 76 79 79 78 77 76 75 70 67 64 63 63 63 63 65 65 65 67 67 68 69 69
51 50 48 48 51 52 54 54 56 56 57 58 59 61 62 67 70 72 76 77 79 81 79 75 69 65 61 56 55 55 54 53 53 52 53 55 56 57 59 61 62 64 66
49 47 49 51 52 53 53 55 55 57 58 61 62 63 66 68 72 76 79 80 75 70 65 62 57 55 53 49 46 48 49 48 48 49 49 49 47 48 49 50 51 53 56
48 49 50 51 52 52 53 55 57 57 58 60 64 65 67 69 72 78 77 69 65 63 60 59 54 49 45 43 38 38 38 37 37 39 39 38 41 45 46 46 49 51 52
50 49 51 50 51 54 57 57 57 58 59 62 67 71 70 70 73 74 65 62 62 57 53 48 43 38 36 36 34 32 32 32 32 33 33 34 38 40 42 42 42 44 47
49 50 51 51 54 57 57 57 58 59 62 66 70 72 73 75 73 63 60 58 54 48 42 36 31 31 30 30 32 32 30 32 32 36 36 38 39 42 44 41 42 43 41
51 52 54 57 59 59 58 59 59 63 67 69 72 75 77 74 63 59 57 54 45 38 35 32 30 31 32 33 34 37 38 39 40 38 38 39 41 45 45 47 48 46 45
57 57 57 60 63 60 59 61 63 67 69 73 76 79 76 63 57 52 52 48 39 31 26 25 27 30 32 35 37 39 41 44 46 50 52 48 48 48 53 56 55 51 51
59 61 62 64 63 61 61 63 66 71 73 77 79 77 65 56 50 49 42 29 22 23 25 28 30 33 36 40 42 45 50 51 53 56 58 60 62 62 63 65 67 64 62
Wind_Direction
258 264 262 264 265 270 277 281 281 281 306 317 322 320 327 328 325 322 321 325 324 320 316 313 300 280 266 253 250 247 250 252 255 255 250 245 246 251 254 256 257 259 261
254 260 262 267 265 266 273 274 276 276 295 315 316 317 324 328 325 320 320 321 322 319 316 314 310 298 278 261 254 250 249 250 252 254 254 255 253 254 257 259 260 264 266
253 257 261 264 265 267 273 273 273 273 283 299 311 317 324 329 321 316 316 316 320 318 315 311 308 304 294 275 262 255 254 256 259 255 256 259 258 259 262 263 263 265 268
250 255 259 265 266 266 270 270 271 279 286 286 305 315 320 325 314 311 310 316 316 318 315 310 304 301 299 291 273 265 260 258 261 260 258 258 260 261 262 263 264 265 266
247 253 259 265 266 265 269 266 272 279 285 284 302 309 316 318 310 303 304 308 309 309 308 308 305 301 298 294 289 276 266 261 261 261 261 261 260 262 263 263 265 265 265
248 253 257 261 262 263 264 264 273 281 283 286 297 304 314 312 305 302 300 307 308 306 304 303 300 298 297 295 290 285 279 272 268 267 267 268 268 267 268 269 268 265 265
248 255 259 262 263 263 265 265 271 279 280 290 293 305 312 310 311 309 303 304 303 302 300 299 298 295 294 292 290 287 281 277 275 272 271 272 272 272 271 272 271 268 266
249 257 262 264 264 266 269 268 271 278 286 289 293 307 308 307 307 304 300 299 300 299 297 295 291 290 288 287 288 286 284 280 277 275 272 269 269 271 273 273 271 269 268
250 257 258 262 264 267 269 268 271 282 284 288 302 304 302 303 300 299 299 300 299 297 296 294 293 290 286 284 282 282 279 277 276 274 274 273 273 271 270 271 272 271 269
252 257 258 260 262 267 269 271 271 280 283 297 301 300 300 299 299 301 301 299 298 296 296 296 294 291 287 284 283 282 280 277 276 276 276 274 273 272 270 269 269 270 270
255 257 261 262 263 267 271 271 273 280 290 296 297 298 297 297 300 301 300 301 298 298 298 295 292 290 288 285 283 282 280 278 277 276 275 275 274 274 273 272 270 270 270
257 260 262 265 266 267 270 274 275 287 294 294 295 296 297 300 301 302 300 298 296 294 294 296 295 292 290 287 286 285 284 282 280 277 274 273 273 272 272 271 271 269 269
257 260 263 267 267 266 271 273 285 294 292 293 294 296 299 300 299 297 298 296 295 293 295 294 291 289 288 288 287 287 288 287 285 281 279 277 276 274 273 272 270 268 266
255 260 264 262 264 267 277 282 289 290 292 292 296 298 298 300 299 297 296 296 296 295 292 291 289 287 283 286 286 287 287 287 287 285 283 279 277 276 274 273 272 271 271
252 255 256 260 266 273 280 286 288 290 291 293 296 298 299 298 297 297 298 297 294 293 291 288 287 286 283 285 288 289 287 286 285 285 282 280 276 274 273 273 272 271 270
251 256 261 266 274 280 283 283 287 289 290 293 297 298 298 298 298 297 296 294 295 292 290 289 289 288 287 287 287 287 286 284 282 282 280 278 276 273 272 271 270 269 268
257 263 267 272 275 279 281 286 287 289 292 296 297 297 297 297 297 297 298 297 296 295 293 290 289 289 289 288 287 286 284 283 281 281 279 277 276 275 275 275 275 274 273
260 264 266 270 275 281 284 286 289 291 293 294 296 295 297 298 299 297 298 298 296 295 294 294 293 290 289 289 289 285 283 283 282 281 280 279 279 278 278 279 277 276 274
258 261 267 273 277 281 285 288 290 292 292 293 293 296 299 299 301 303 300 299 299 299 298 296 297 294 293 292 290 289 287 285 284 284 283 282 282 282 280 278 277 276 276
260 265 270 274 279 284 287 288 289 291 291 292 295 299 300 304 303 303 301 302 303 300 299 297 297 296 293 291 288 285 284 285 285 285 285 285 288 285 282 283 283 282 282
263 268 274 278 283 285 286 290 290 291 295 297 299 302 308 305 305 303 304 306 304 300 297 295 294 291 291 291 291 291 290 291 293 293 294 294 289 288 290 292 291 290 288
265 270 275 280 283 286 289 288 289 292 298 302 306 309 307 308 306 306 308 309 307 303 300 299 297 297 296 294 293 295 300 302 301 300 300 299 295 296 295 294 293 291 290
268 273 276 279 285 289 288 290 292 299 304 307 309 309 310 309 307 307 308 307 302 301 301 303 307 310 309 313 313 309 304 301 301 301 301 302 303 305 304 300 299 294 291
270 274 277 281 286 289 289 293 299 303 307 311 309 308 309 307 307 308 306 304 299 301 305 307 311 312 313 315 315 317 317 316 311 307 305 306 307 309 310 309 306 302 298
270 275 280 284 288 290 292 297 301 305 309 307 307 309 307 304 305 303 302 299 300 301 306 315 319 322 323 323 321 319 318 318 317 317 315 311 309 309 308 309 309 304 303
272 278 282 286 290 290 293 299 303 306 305 305 306 306 302 302 299 298 295 294 298 309 314 314 316 317 317 317 315 315 314 314 314 313 311 310 309 307 306 306 306 304 301
Height
10904 10904 10905 10905 10906 10906 10907 10907 10907 10907 10906 10906 10904 10903 10901 10899 10896 10894 10892 10890 10888 10886 10885 10884 10882 10881 10880 10880 10880 10879 10879 10879 10879 10879 10879 10879 10879 10878 10878 10877 10876 10876 10876
10899 10900 10901 10901 10901 10902 10903 10903 10903 10903 10903 10902 10901 10899 10898 10896 10894 10891 10889 10886 10884 10882 10881 10879 10878 10877 10876 10876 10875 10875 10875 10874 10875 10875 10874 10874 10875 10874 10873 10872 10872 10871 10871
10893 10895 10896 10897 10898 10898 10899 10899 10899 10899 10898 10897 10897 10895 10893 10892 10890 10888 10886 10884 10881 10879 10877 10876 10874 10873 10872 10871 10870 10870 10871 10871 10870 10870 10870 10869 10868 10868 10867 10867 10867 10866 10865
10888 10890 10891 10892 10893 10893 10894 10894 10894 10893 10893 10892 10892 10890 10889 10888 10886 10885 10883 10881 10878 10876 10874 10872 10871 10869 10867 10866 10865 10865 10865 10865 10865 10864 10864 10863 10862 10861 10861 10860 10859 10859 10858
10884 10885 10886 10887 10887 10888 10889 10889 10889 10888 10887 10887 10887 10885 10884 10883 10881 10880 10878 10876 10875 10872 10870 10868 10866 10864 10863 10862 10861 10859 10858 10858 10857 10857 10856 10855 10855 10854 10853 10852 10852 10851 10850
10878 10880 10881 10881 10882 10883 10883 10883 10883 10883 10882 10882 10881 10880 10879 10877 10876 10875 10873 10871 10869 10868 10866 10864 10861 10859 10858 10857 10856 10855 10853 10851 10850 10849 10848 10847 10846 10845 10845 10844 10842 10842 10840
10872 10874 10875 10876 10877 10878 10878 10878 10878 10877 10877 10876 10876 10874 10872 10871 10870 10869 10867 10865 10862 10860 10859 10857 10855 10853 10851 10850 10849 10848 10846 10844 10843 10842 10841 10839 10838 10836 10835 10835 10834 10832 10832
10867 10868 10870 10871 10871 10873 10873 10872 10873 10872 10872 10871 10870 10869 10866 10865 10863 10861 10859 10857 10854 10852 10851 10849 10847 10845 10843 10842 10840 10839 10837 10835 10834 10832 10831 10831 10830 10828 10826 10825 10825 10824 10823
10862 10864 10864 10865 10866 10867 10866 10867 10867 10867 10866 10865 10864 10862 10861 10859 10856 10854 10851 10849 10846 10843 10841 10839 10838 10836 10834 10832 10830 10829 10827 10825 10824 10822 10821 10820 10820 10819 10818 10816 10815 10814 10814
10856 10858 10859 10859 10860 10860 10861 10861 10860 10860 10860 10858 10856 10854 10852 10850 10847 10844 10842 10838 10835 10833 10831 10829 10826 10824 10822 10820 10818 10817 10815 10813 10812 10811 10809 10808 10807 10806 10807 10806 10805 10803 10803
10850 10852 10853 10853 10854 10854 10855 10855 10854 10854 10852 10850 10848 10846 10844 10841 10838 10835 10831 10828 10825 10822 10820 10817 10814 10811 10808 10805 10803 10802 10801 10800 10798 10797 10796 10796 10794 10791 10793 10793 10793 10792 10791
10844 10845 10846 10847 10848 10849 10850 10849 10848 10846 10844 10842 10839 10837 10835 10831 10828 10824 10821 10817 10814 10811 10807 10804 10801 10798 10795 10792 10789 10787 10786 10785 10783 10782 10780 10780 10780 10777 10776 10777 10777 10777 10777
10837 10838 10840 10842 10843 10843 10843 10842 10840 10838 10836 10833 10830 10827 10824 10821 10818 10814 10810 10806 10803 10799 10795 10791 10788 10784 10781 10778 10776 10773 10771 10769 10767 10766 10764 10764 10763 10763 10762 10760 10758 10759 10759
10831 10833 10835 10836 10836 10836 10836 10834 10832 10829 10826 10823 10820 10818 10814 10810 10806 10802 10799 10795 10791 10786 10783 10778 10773 10770 10766 10763 10760 10759 10757 10754 10751 10749 10747 10747 10746 10745 10744 10742 10739 10739 10740
10825 10828 10829 10830 10830 10829 10827 10826 10823 10820 10816 10813 10811 10807 10803 10799 10795 10791 10787 10783 10778 10773 10767 10762 10758 10753 10749 10748 10746 10742 10739 10738 10735 10733 10730 10728 10726 10725 10724 10724 10722 10720 10721
10820 10821 10822 10822 10821 10820 10819 10816 10814 10810 10806 10804 10800 10796 10792 10788 10783 10778 10774 10770 10766 10760 10754 10748 10742 10736 10733 10730 10727 10724 10720 10717 10717 10716 10714 10711 10709 10706 10703 10703 10702 10701 10700
10813 10814 10814 10813 10812 10811 10808 10806 10803 10800 10797 10794 10789 10785 10780 10775 10770 10765 10760 10756 10751 10745 10739 10734 10726 10719 10714 10711 10709 10706 10702 10700 10698 10697 10694 10692 10691 10688 10686 10683 10683 10682 10681
10804 10806 10805 10803 10802 10800 10799 10797 10794 10791 10787 10782 10778 10774 10769 10764 10757 10750 10745 10741 10735 10729 10722 10715 10708 10701 10697 10693 10689 10685 10682 10682 10681 10678 10675 10673 10672 10671 10669 10667 10664 10662 10659
10796 10796 10795 10793 10792 10791 10790 10787 10784 10780 10776 10771 10767 10763 10758 10751 10744 10737 10729 10725 10719 10711 10703 10696 10689 10683 10679 10677 10673 10670 10669 10667 10665 10662 10659 10657 10655 10654 10652 10649 10647 10644 10642
10788 10787 10785 10783 10783 10783 10781 10777 10774 10769 10765 10761 10756 10752 10746 10739 10731 10722 10715 10709 10701 10692 10686 10680 10676 10670 10667 10665 10661 10658 10655 10653 10651 10649 10647 10644 10642 10638 10634 10633 10631 10627 10624
10778 10778 10777 10776 10776 10773 10770 10767 10762 10758 10754 10750 10744 10739 10734 10727 10718 10708 10701 10692 10684 10677 10672 10667 10663 10659 10654 10652 10650 10647 10644 10642 10640 10638 10636 10633 10628 10626 10624 10621 10618 10614 10612
10769 10770 10768 10769 10767 10763 10760 10756 10751 10748 10744 10738 10731 10725 10719 10713 10704 10694 10686 10679 10673 10666 10660 10657 10652 10649 10646 10643 10641 10639 10635 10633 10631 10628 10626 10623 10618 10616 10613 10611 10607 10603 10599
10761 10761 10760 10759 10755 10752 10748 10744 10740 10737 10732 10727 10720 10711 10705 10698 10689 10682 10675 10670 10664 10659 10654 10649 10645 10642 10639 10636 10633 10631 10630 10627 10625 10621 10619 10615 10611 10607 10602 10599 10596 10592 10586
10753 10751 10750 10748 10744 10741 10737 10733 10729 10725 10720 10714 10707 10699 10691 10683 10677 10671 10665 10661 10656 10651 10648 10643 10638 10634 10630 10627 10624 10621 10617 10615 10612 10611 10610 10607 10602 10597 10592 10586 10583 10579 10574
10742 10740 10738 10736 10732 10729 10725 10721 10717 10714 10708 10701 10694 10686 10678 10672 10666 10661 10656 10652 10649 10644 10640 10636 10632 10628 10624 10620 10617 10614 10610 10606 10602 10598 10593 10593 10591 10587 10581 10575 10570 10567 10563
10730 10728 10726 10723 10720 10718 10714 10709 10705 10701 10695 10688 10681 10672 10665 10660 10657 10652 10649 10644 10640 10636 10632 10629 10624 10620 10617 10613 10610 10605 10601 10596 10593 10589 10584 10579 10575 10573 10569 10563 10557 10552 10549